Theta_e
314 314 314 314 314 314 314 313 313 312 312 312 311 311 311 310 310 310 310 310 311 310 310 310 310 311 312 312 312 312 312 308 308 307 307 310 316 320 319 315 318 318 318 313 312 310 308 309 308 311 310 308 308 307 311 311 311 309 302 300 299 301 300 305 304 305 307 306 307 307 309 307 305 310 314 322 321 320 322 321 321 327 331 342 343 346 349 350
313 314 314 314 315 314 314 314 313 313 313 313 312 311 311 311 310 310 310 310 310 311 310 309 310 310 310 311 311 312 310 308 307 308 307 316 319 318 316 317 320 321 319 311 310 309 307 307 308 309 308 305 310 306 310 307 311 305 302 301 298 303 305 308 308 308 306 306 308 308 309 308 307 308 320 319 318 317 315 318 320 325 334 340 345 347 347 348
313 313 314 313 313 314 314 313 313 313 313 313 313 313 311 311 311 311 310 310 310 311 310 309 310 310 310 310 310 310 309 307 308 305 310 322 316 318 316 319 320 323 320 311 310 311 310 309 309 308 308 305 308 305 307 307 308 306 303 299 301 306 307 309 308 307 308 308 306 307 309 308 309 309 319 316 318 316 312 314 319 326 329 338 342 345 346 347
312 313 313 313 313 313 313 314 314 313 313 313 312 313 313 312 311 311 311 310 310 310 309 309 309 310 311 311 312 310 308 306 302 307 314 319 318 316 318 318 320 321 324 319 315 312 311 310 310 309 306 304 306 307 304 307 304 306 303 300 303 307 305 308 309 308 308 308 307 307 308 307 309 310 313 316 316 316 313 319 321 325 328 335 341 343 346 346
312 312 312 312 312 313 313 312 313 314 314 313 313 312 313 313 312 311 311 310 310 310 309 310 309 309 310 310 310 310 306 297 302 313 312 314 314 313 315 318 319 318 322 320 315 314 311 308 308 308 306 302 305 305 304 307 308 306 303 305 306 308 305 308 309 310 309 308 307 307 306 306 311 310 309 311 309 315 317 321 324 328 330 335 339 343 344 344
311 311 311 311 312 312 312 312 312 313 312 313 314 312 312 312 312 312 311 311 310 310 309 309 309 308 309 310 308 308 304 291 307 312 315 310 314 313 315 317 321 316 319 319 313 311 309 307 306 304 304 303 303 301 304 306 309 301 305 305 306 307 306 309 309 308 308 307 306 305 308 310 309 308 311 310 310 315 323 324 326 327 328 334 341 343 342 343
310 310 311 311 311 311 311 312 312 312 312 312 312 312 312 312 312 312 312 311 311 310 309 309 309 309 309 309 309 306 300 302 308 315 318 312 311 316 313 317 319 316 318 316 313 309 307 305 304 303 303 302 303 303 305 305 307 305 302 306 305 307 306 309 308 309 308 307 306 308 310 308 308 305 310 309 312 316 323 331 329 333 332 341 341 342 342 343
309 309 310 310 310 311 311 311 311 311 311 312 312 312 312 311 312 312 312 312 311 310 309 309 309 309 308 306 303 300 301 301 309 314 315 312 310 312 314 309 310 316 316 314 311 308 307 303 302 304 303 301 303 303 305 304 305 303 302 306 307 308 308 309 309 309 308 308 309 308 306 307 308 308 310 309 312 316 321 332 334 339 340 337 341 340 341 343
308 308 309 309 309 309 310 310 311 311 311 311 311 311 311 312 312 312 311 311 311 310 309 309 309 308 309 305 301 297 297 307 311 312 313 310 309 309 310 307 309 309 317 315 313 310 306 303 304 305 301 302 306 303 305 303 300 304 304 306 306 306 308 308 309 308 307 308 308 306 305 307 309 310 308 310 312 315 321 331 336 338 337 331 335 340 342 343
308 308 308 308 308 309 309 310 310 310 310 310 311 311 311 311 311 311 311 311 311 311 310 310 309 308 305 302 300 293 302 309 309 310 311 310 309 309 308 308 308 307 312 317 313 310 306 305 304 307 306 305 306 303 305 304 302 306 305 306 305 306 307 308 307 307 308 307 308 305 305 306 309 308 304 311 313 315 322 326 335 336 332 327 334 341 343 342
309 308 308 308 308 308 309 309 309 310 310 310 310 310 311 311 311 310 311 311 311 311 311 310 310 307 302 303 294 293 309 308 311 311 310 310 309 307 307 307 308 306 307 313 313 312 309 307 308 308 306 302 305 304 304 304 307 305 305 306 305 305 306 307 307 307 308 306 307 307 305 307 309 308 307 312 314 318 325 326 331 333 328 329 336 339 340 341
308 309 308 308 307 308 308 309 309 309 309 310 310 310 310 310 310 310 311 311 311 310 310 310 310 308 304 299 295 296 309 309 312 311 311 310 308 308 308 308 308 306 306 307 311 313 310 308 308 305 300 307 300 304 304 307 306 305 304 300 303 304 303 306 305 306 307 305 308 308 304 303 305 304 309 317 321 326 326 329 331 333 331 330 335 337 339 340
308 309 309 308 308 307 308 308 308 308 309 309 309 309 309 310 310 310 311 310 311 310 310 310 310 307 302 294 298 305 308 309 308 307 307 308 309 310 309 309 308 307 307 306 308 313 313 310 308 304 306 305 303 299 305 307 305 305 304 301 300 301 300 305 306 306 306 306 308 307 295 299 304 307 310 317 327 327 325 329 332 331 329 335 338 337 337 338
308 308 308 308 309 308 307 308 307 307 307 308 308 308 309 309 310 310 310 310 311 310 310 310 309 305 300 294 302 307 309 310 309 308 308 310 307 307 308 308 308 308 308 307 308 311 312 312 308 306 308 304 301 308 303 303 305 299 301 302 297 297 297 304 304 305 303 307 306 307 297 300 304 307 310 316 326 325 325 329 331 330 331 334 334 336 336 338
307 307 307 308 308 308 308 307 307 307 307 307 308 308 308 309 310 310 310 310 310 311 310 310 308 302 296 297 306 309 311 309 305 305 308 306 305 304 305 308 307 307 308 308 307 310 312 311 307 303 301 307 306 303 299 300 301 301 296 294 298 295 298 303 306 304 301 304 307 305 298 300 305 307 310 318 322 324 327 329 330 333 326 330 334 335 335 337
307 307 307 307 307 307 307 307 307 307 307 307 307 307 308 308 309 310 310 310 311 310 310 305 303 301 296 292 300 310 306 302 303 307 308 307 306 303 307 306 307 307 307 307 309 310 310 309 302 303 303 304 301 299 298 296 297 299 296 295 295 296 297 300 304 306 305 304 305 304 298 301 304 309 311 319 320 323 328 330 329 330 333 332 332 332 335 336
306 307 307 307 306 307 307 307 307 307 306 306 307 307 307 307 308 309 310 310 309 310 306 301 303 302 290 302 305 300 301 304 307 308 308 309 307 306 307 305 303 304 306 307 308 308 308 304 304 303 304 300 300 299 294 293 293 295 297 295 297 296 297 297 303 305 305 304 301 304 301 302 306 310 313 318 319 322 325 323 328 322 325 331 330 334 335 335
306 306 306 306 306 306 307 307 306 306 306 306 306 306 304 306 308 308 308 308 308 307 305 306 303 297 294 301 294 297 305 304 304 305 306 309 308 307 306 303 303 303 304 303 307 303 305 300 302 296 299 299 299 296 292 289 293 294 295 294 295 298 299 298 299 303 304 304 302 302 301 303 306 310 313 319 321 321 323 325 323 327 330 332 332 330 334 335
306 306 306 306 306 306 306 306 306 306 305 305 306 307 307 308 307 308 304 304 300 295 291 294 295 286 288 296 302 302 303 306 306 305 303 306 308 308 307 307 304 301 299 299 300 301 302 299 299 295 293 295 296 296 294 297 298 297 298 296 297 296 297 297 302 305 304 301 300 301 299 301 305 309 314 318 319 321 327 327 327 326 326 328 330 329 332 336
306 306 306 306 306 306 306 306 305 305 305 304 304 303 302 298 299 297 301 301 297 296 296 298 297 297 298 300 299 303 305 305 301 303 304 307 306 304 303 304 301 301 299 296 299 300 302 294 292 291 294 297 298 299 299 299 300 300 299 299 297 297 299 301 302 305 305 302 300 302 302 302 304 308 313 316 318 321 324 325 325 327 327 326 328 330 333 336
306 305 305 305 305 305 306 305 305 305 304 305 303 299 291 293 290 288 295 296 299 299 298 298 299 298 297 300 302 301 297 299 301 301 303 309 306 302 299 300 298 295 297 299 299 302 300 293 293 296 297 299 299 300 300 299 300 299 299 298 297 298 297 301 301 304 305 302 300 303 302 302 304 307 311 316 318 318 322 321 321 325 325 323 327 328 331 335
305 305 305 305 305 305 305 305 305 305 304 305 302 296 297 297 300 302 298 291 296 300 299 299 300 298 302 301 303 303 301 296 298 300 306 307 303 297 298 298 296 293 298 299 299 297 294 292 295 298 300 301 301 300 300 299 298 299 297 298 297 298 300 302 302 304 304 302 300 302 301 302 304 306 309 313 316 321 322 325 330 327 325 325 326 329 332 335
305 304 305 305 305 305 304 305 304 304 304 301 297 297 297 302 305 304 301 294 291 298 297 298 296 297 297 301 302 303 295 294 293 299 301 304 301 299 299 295 295 296 297 298 294 294 291 294 298 300 301 299 300 300 299 299 299 298 297 297 295 299 297 295 300 302 303 301 300 302 300 302 305 307 308 312 315 320 321 321 326 329 327 328 329 331 330 331
305 305 305 305 305 304 304 304 304 303 302 301 299 298 302 304 305 303 297 289 288 294 297 298 298 297 297 296 302 300 295 295 296 296 304 302 298 301 298 296 295 295 294 297 297 295 294 298 301 300 300 299 297 299 298 297 295 298 298 298 297 298 298 299 299 301 302 302 303 302 300 300 303 303 304 310 315 319 320 320 321 325 329 324 324 326 330 331
304 304 304 305 304 304 304 303 301 301 302 300 300 303 305 305 308 304 296 291 291 291 300 298 299 299 300 306 305 297 298 298 298 301 303 302 299 299 297 300 297 293 296 298 297 296 297 301 302 299 299 299 297 297 297 297 295 296 298 299 299 299 299 299 301 299 297 296 300 300 294 295 301 303 303 307 311 314 319 319 319 322 327 325 321 320 323 333
305 304 304 304 304 303 303 298 300 301 299 297 299 304 306 305 306 305 296 285 281 290 298 291 302 294 306 298 300 300 300 293 300 301 303 303 305 300 299 296 297 292 296 297 296 298 298 302 301 298 298 298 297 297 298 299 295 295 295 300 299 299 299 299 298 298 293 291 298 302 294 291 301 301 303 306 309 311 317 317 320 321 323 326 326 323 324 329
305 305 304 304 303 303 299 296 301 300 295 297 303 307 305 306 306 301 287 282 278 290 289 297 296 299 303 300 300 301 287 291 301 302 301 304 299 305 296 295 296 298 299 300 296 293 300 300 299 299 298 296 295 294 298 298 295 293 300 300 299 299 298 298 298 298 297 300 301 301 299 294 294 299 305 307 309 309 312 315 318 318 318 320 327 330 331 330
305 305 305 304 303 302 300 301 299 295 295 302 306 306 306 303 303 300 284 273 275 297 289 294 297 305 301 302 302 295 295 300 292 297 302 304 303 300 297 295 294 294 298 297 289 298 299 297 298 296 297 296 294 297 299 300 296 297 300 301 299 299 299 299 298 297 298 297 294 297 300 293 294 301 304 306 305 306 309 312 320 319 322 322 323 324 324 321
305 305 304 304 304 303 304 300 298 296 301 304 305 306 304 303 297 287 280 272 291 291 304 292 305 301 300 300 297 297 297 299 292 297 301 303 303 301 293 297 297 296 298 298 293 297 300 300 300 299 297 294 298 299 300 299 295 299 301 302 301 300 299 299 297 297 297 294 290 295 298 292 292 299 301 304 303 303 308 312 318 318 320 320 318 322 323 323
305 304 304 304 304 302 302 304 301 302 304 304 303 305 303 298 289 279 275 269 294 283 293 295 295 292 298 293 293 296 294 296 298 298 298 297 299 302 300 303 298 296 295 298 298 299 300 304 304 300 297 299 299 300 300 300 300 302 301 299 298 298 298 299 298 297 295 288 292 297 299 295 290 296 300 300 301 305 308 311 315 317 317 318 319 323 326 324
305 305 304 304 300 302 301 295 299 302 303 303 303 302 298 289 280 277 271 279 290 289 293 292 291 297 294 292 289 294 294 295 296 295 292 297 295 298 298 295 300 295 294 295 295 298 300 300 300 301 303 302 302 299 301 301 301 299 297 296 296 295 297 295 295 297 288 286 294 298 299 298 289 294 300 306 307 308 309 309 311 314 315 316 321 323 325 327
304 305 304 304 304 305 298 296 301 303 304 305 302 296 289 277 282 273 275 291 279 285 286 287 292 293 293 294 292 291 291 294 296 293 291 292 292 291 293 290 293 287 287 290 290 297 296 297 300 301 305 302 299 297 297 299 299 298 296 295 290 288 288 285 290 285 286 286 294 298 298 295 294 299 303 305 306 308 310 310 311 314 315 317 320 324 326 327
304 304 305 305 305 303 303 304 306 305 306 304 298 292 282 275 271 280 281 286 279 285 286 291 289 290 291 291 289 292 295 290 295 293 294 293 292 292 295 295 295 293 285 291 291 291 293 298 298 299 301 302 300 293 294 292 295 295 293 292 289 285 283 280 285 288 288 293 297 297 299 293 298 300 304 305 308 309 311 312 313 314 315 317 325 322 326 328
304 304 303 305 305 304 305 308 304 305 302 301 294 286 280 274 274 285 282 285 284 291 290 287 289 291 291 288 291 293 289 294 294 292 293 291 291 289 292 295 296 293 294 293 289 290 286 287 293 297 294 301 300 299 297 295 295 295 297 294 292 291 286 280 285 282 285 289 293 298 293 290 293 297 305 306 310 311 311 311 313 315 316 318 323 328 327 327
303 305 306 305 306 307 306 305 306 304 301 296 288 282 275 276 281 281 282 284 287 288 285 290 287 289 289 290 293 293 293 290 294 293 291 290 288 290 290 291 295 296 296 289 293 291 290 291 296 300 300 301 299 302 303 298 296 297 297 298 293 291 296 287 289 290 290 289 290 292 291 297 296 305 307 308 308 308 309 310 317 317 317 319 328 329 328 329
303 305 306 303 302 307 308 308 308 304 299 292 284 279 277 281 278 285 282 289 287 284 285 287 289 287 288 289 292 292 295 291 292 292 290 291 292 290 294 294 294 296 294 290 293 289 291 290 298 299 302 299 300 302 302 302 289 294 295 291 294 300 298 291 291 296 293 290 287 294 294 298 303 303 306 306 306 307 309 311 312 316 315 328 327 328 327 328
301 303 300 303 301 307 308 307 307 303 297 289 282 278 284 284 287 286 289 286 284 288 284 279 283 283 285 285 287 291 292 294 292 291 287 292 290 293 293 294 297 296 298 297 293 297 290 290 297 297 295 301 303 303 303 302 301 297 291 295 300 302 301 295 286 289 288 285 286 294 291 293 294 290 304 305 305 306 308 308 310 312 313 324 326 327 329 329
300 302 300 300 302 307 308 306 305 300 294 287 280 283 288 285 291 289 291 289 288 287 283 282 283 286 283 285 286 290 292 289 289 291 289 291 289 297 294 293 297 297 298 301 295 295 297 289 294 297 298 300 302 302 299 302 303 298 295 303 294 289 288 294 291 283 283 283 286 291 293 293 294 295 301 302 304 306 307 309 308 308 312 313 321 327 329 332
300 299 294 298 306 307 306 307 303 296 288 283 282 281 287 288 290 290 292 291 290 287 282 284 281 286 287 285 288 291 291 287 290 290 288 289 288 294 294 296 294 297 298 300 296 297 298 289 290 298 297 299 299 298 290 295 300 302 303 298 301 298 294 290 291 293 291 284 285 288 292 288 297 298 302 304 306 307 306 307 309 310 311 313 314 321 325 325
297 293 290 301 307 308 306 305 298 292 286 280 284 284 290 286 290 293 293 291 287 286 284 283 285 283 286 288 291 288 290 291 290 291 291 291 290 296 294 298 295 296 298 300 297 299 293 298 285 293 298 298 291 295 293 295 293 294 296 295 296 297 300 298 298 293 290 286 286 286 285 292 300 303 303 305 307 308 308 307 309 311 314 314 314 324 328 328
299 292 292 304 305 307 303 298 290 286 284 289 288 286 288 286 290 291 292 294 291 293 287 286 285 284 287 288 289 293 290 292 291 290 291 291 292 286 296 297 298 295 298 298 297 298 293 293 287 291 291 291 293 298 298 299 298 296 295 294 295 293 292 288 287 297 295 291 286 286 285 296 303 305 305 306 310 310 310 309 309 312 315 316 318 326 329 330
293 285 291 305 307 305 298 287 288 292 289 285 285 287 286 291 289 289 291 292 292 289 294 290 290 289 289 290 291 291 292 290 291 291 292 290 294 293 296 299 298 299 296 294 295 299 299 296 293 288 291 292 296 299 301 302 301 300 298 296 299 298 297 292 285 290 294 294 296 294 288 290 310 309 306 309 311 311 312 311 310 312 316 318 320 326 331 331
293 291 301 306 307 303 294 286 290 286 287 290 291 290 292 290 289 291 289 291 288 291 290 289 289 289 292 291 292 292 292 290 291 290 292 293 294 297 298 299 299 298 298 297 298 299 301 292 290 291 295 297 298 301 301 301 301 298 298 300 298 296 296 295 294 296 292 293 291 291 287 294 310 314 318 315 313 319 320 320 320 319 321 321 329 329 329 328
296 295 297 306 306 302 291 283 284 286 287 290 291 288 291 290 290 289 289 291 290 289 288 289 291 293 290 294 293 291 294 287 292 292 291 295 293 299 298 298 299 296 296 296 294 299 290 293 292 287 288 290 293 296 295 299 299 296 296 297 298 299 299 299 299 299 291 294 293 291 286 293 308 310 316 311 313 318 318 320 321 322 325 327 328 328 328 328
293 296 297 300 303 300 287 291 288 287 288 288 288 287 288 289 291 290 290 290 292 290 289 288 290 292 292 294 293 294 295 293 290 294 294 295 294 299 298 298 299 298 298 301 303 301 294 294 292 285 282 280 280 282 284 288 292 296 298 297 298 298 298 296 290 293 288 293 294 291 291 301 309 314 311 312 311 312 319 322 324 325 325 324 326 326 326 328
290 284 292 293 298 297 294 295 291 288 287 287 285 287 289 287 290 293 293 290 292 292 291 291 293 294 293 293 292 292 293 296 293 291 293 294 295 296 298 298 298 299 301 306 303 300 295 298 295 293 289 287 289 293 297 296 295 292 295 296 296 297 299 299 297 292 289 293 292 295 297 300 303 304 306 309 310 316 317 320 320 321 323 325 326 325 324 324
294 286 285 284 290 292 291 293 291 290 286 290 284 287 286 287 289 291 295 287 293 291 291 292 292 291 292 292 291 291 293 293 295 294 294 294 295 296 298 298 298 300 305 300 304 299 296 292 295 296 295 294 296 295 297 296 294 294 294 295 296 296 297 298 292 291 297 293 289 297 299 297 300 303 306 305 311 315 318 317 318 320 321 323 325 323 317 322
285 289 289 291 284 284 286 287 291 289 291 291 286 290 286 286 287 285 291 293 294 294 288 293 294 294 294 292 295 288 292 293 294 291 294 295 294 297 295 297 297 302 300 299 302 299 296 290 296 296 294 296 297 297 297 296 296 296 296 297 296 296 296 295 296 298 299 292 290 298 300 297 299 306 308 311 313 314 315 317 318 321 321 323 322 320 319 319
293 292 292 294 285 289 289 290 292 291 290 290 288 289 286 286 286 289 288 290 292 291 293 285 291 293 295 295 296 293 293 288 288 296 294 294 294 294 293 295 298 300 298 299 300 301 297 292 296 296 295 296 296 297 298 296 296 296 296 296 297 297 297 297 298 299 299 298 299 299 300 299 302 306 309 313 312 312 315 318 318 320 319 320 320 319 318 319
287 286 286 292 291 288 291 291 291 291 289 292 286 288 288 287 286 290 292 289 286 288 295 291 293 296 296 297 296 291 295 295 293 290 298 297 294 297 295 295 294 298 298 297 298 301 296 291 295 296 293 294 296 297 298 297 296 295 296 296 297 297 297 298 299 299 300 299 300 300 299 299 303 317 315 318 318 317 318 317 316 319 320 320 320 320 319 320
295 295 293 286 285 290 292 292 291 290 288 291 287 289 289 290 289 292 290 294 290 289 293 291 294 295 297 296 296 295 300 301 300 298 301 298 293 298 295 296 299 295 296 297 298 299 297 292 297 295 289 291 296 296 297 297 296 295 295 296 296 296 295 297 295 299 298 297 299 298 298 298 304 315 317 318 317 316 316 316 316 317 320 319 319 319 319 320
298 299 299 292 285 290 288 292 292 290 286 290 290 290 289 290 293 294 288 295 296 297 296 295 295 294 296 294 293 298 304 303 304 304 304 303 302 303 302 300 299 297 295 296 298 296 296 295 291 291 288 288 298 299 297 296 294 290 290 296 297 298 299 299 299 301 300 301 296 293 296 303 310 313 313 315 315 315 315 315 316 318 321 321 320 319 319 319
Wind_Speed
15 15 13 14 14 15 14 13 12 12 11 11 10 10 10 11 12 13 13 14 14 14 15 16 16 17 17 17 18 17 18 17 19 14 14 14 10 11 7 5 6 9 9 11 10 11 11 11 13 12 11 11 10 12 11 13 9 9 11 11 13 11 14 10 15 9 5 10 10 7 6 5 8 3 5 6 11 11 9 11 9 8 9 15 17 25 24 21
15 15 15 13 14 15 15 15 15 14 13 12 12 12 11 11 10 12 13 13 14 15 15 16 16 17 17 17 17 16 18 17 18 18 20 7 10 6 10 11 8 8 8 11 12 13 13 13 13 13 12 11 10 11 12 10 12 11 10 12 13 12 11 12 9 9 3 7 5 5 4 4 5 0 2 9 10 12 13 12 13 10 13 15 13 18 21 21
15 15 15 15 14 14 14 15 15 14 14 14 15 15 12 11 12 12 12 12 13 14 15 16 16 16 17 17 16 17 19 18 16 19 5 15 13 9 5 9 9 8 10 12 12 13 13 12 12 13 12 12 12 12 15 10 13 13 11 13 13 12 13 7 2 3 3 8 1 4 5 5 5 6 2 9 8 12 14 12 14 12 15 15 14 16 18 19
15 15 15 15 15 14 14 14 14 15 16 15 14 15 15 12 12 12 12 12 12 14 15 15 15 16 16 18 17 18 17 17 16 4 9 11 9 1 6 8 10 9 11 15 15 13 13 13 12 14 12 13 11 14 14 11 11 11 14 13 11 13 16 8 8 7 5 5 7 7 4 5 9 9 5 6 9 9 12 13 14 14 15 19 16 17 18 20
16 15 15 15 15 14 14 14 15 13 14 15 15 15 14 15 13 13 12 11 11 13 14 15 15 14 16 16 20 16 15 12 4 9 10 5 4 4 7 9 10 10 12 13 14 15 14 13 12 12 13 11 14 13 14 14 12 9 15 16 15 8 9 2 7 11 11 7 8 6 8 9 2 3 8 9 10 7 10 13 15 16 17 17 19 18 18 20
16 15 15 15 15 15 15 15 14 14 14 15 14 15 15 15 15 13 13 12 12 13 13 15 15 15 16 15 17 14 9 5 4 6 8 5 4 6 9 12 13 12 12 15 14 14 14 14 13 12 12 13 15 15 13 15 14 14 13 15 16 16 7 8 7 4 5 7 9 10 10 10 5 8 8 10 12 9 7 13 13 15 19 19 18 17 19 20
16 16 15 15 15 15 15 15 15 15 15 14 15 16 16 15 15 16 14 13 13 13 13 13 15 15 15 17 15 14 11 13 7 12 10 5 4 10 10 15 12 9 12 15 16 15 16 15 16 15 13 15 16 15 14 14 16 14 12 12 15 15 12 9 4 5 7 10 10 8 7 8 8 12 9 12 11 12 7 8 13 11 16 20 19 17 20 20
15 16 16 16 15 15 14 14 15 15 15 15 15 15 16 14 15 15 14 14 12 12 12 12 13 14 14 13 11 7 11 11 3 12 9 4 7 5 9 12 7 7 13 18 17 18 16 19 17 15 15 14 11 16 13 15 17 16 15 15 10 14 15 12 9 9 9 9 8 9 11 11 11 11 8 10 10 8 8 4 9 14 17 16 17 18 18 19
13 15 16 17 17 16 15 15 14 15 15 15 15 15 15 15 14 13 15 14 14 12 13 12 11 11 10 11 10 12 11 11 12 2 9 7 6 5 7 8 2 7 10 15 18 17 17 16 18 16 12 16 14 16 14 13 13 17 16 15 13 9 11 12 14 14 11 8 8 11 14 14 12 12 15 12 11 10 10 10 9 15 17 17 17 17 17 19
17 14 15 15 16 17 16 16 15 15 15 15 15 15 15 15 14 14 13 14 15 15 13 12 12 9 12 10 9 11 5 4 2 4 2 2 4 7 8 10 6 7 9 14 16 19 20 14 18 16 17 14 14 16 13 17 10 11 18 16 17 13 11 10 13 13 12 11 10 12 12 14 13 12 10 14 15 14 11 16 14 14 15 18 17 16 17 18
19 19 17 15 15 16 17 16 16 16 15 15 15 14 15 15 14 14 14 14 15 14 14 13 12 11 12 10 11 13 3 7 2 1 5 5 9 9 8 7 7 8 10 10 15 18 18 18 15 10 13 12 12 16 15 12 15 4 5 11 17 17 13 12 13 14 10 11 13 12 13 12 13 11 12 10 15 12 13 15 15 17 15 16 14 15 15 15
18 19 19 18 16 15 16 16 16 17 16 15 15 15 14 14 14 13 13 13 15 14 14 12 13 9 12 14 14 16 5 8 9 8 10 13 12 11 10 10 10 10 9 10 12 15 18 18 16 16 11 11 14 11 15 14 14 15 11 12 14 17 16 16 15 13 12 10 11 12 14 16 14 15 15 7 8 12 14 14 16 17 16 17 18 17 15 16
19 19 19 19 19 16 15 17 16 17 17 15 15 15 14 14 14 14 13 15 14 15 13 12 11 9 13 17 19 18 19 19 22 21 18 14 14 13 12 12 13 12 12 12 10 12 14 15 19 18 18 10 12 11 3 15 14 13 10 10 11 13 16 18 15 14 13 12 10 10 12 14 16 17 17 11 11 13 15 15 16 14 15 15 15 15 15 15
20 20 19 19 18 18 17 16 17 16 16 15 15 15 15 14 14 14 14 15 16 14 14 14 11 12 14 20 14 16 18 17 20 21 18 14 15 15 14 14 13 12 11 13 13 9 13 14 16 18 14 17 10 7 6 8 12 12 12 10 11 12 13 17 17 17 17 12 14 13 12 11 16 19 20 13 13 15 16 16 16 16 15 14 15 14 15 16
20 20 20 18 17 18 17 17 16 17 15 15 15 16 15 15 13 14 15 16 16 15 14 11 11 12 13 16 17 25 27 22 23 22 17 16 16 15 15 12 14 14 12 12 10 10 9 15 16 15 15 15 14 13 11 11 10 11 11 14 13 14 11 14 18 19 17 13 16 14 13 12 15 20 20 15 14 17 16 17 16 12 15 15 13 15 15 16
20 19 19 19 17 16 16 16 16 16 15 15 15 15 17 17 15 14 15 16 15 13 11 13 10 13 14 15 9 3 7 16 19 21 18 18 17 16 13 15 13 13 13 11 8 7 10 12 14 13 13 15 18 12 8 11 12 13 15 12 15 14 13 13 18 16 19 14 17 18 11 14 17 18 19 15 17 18 18 15 16 14 13 15 14 14 14 16
20 20 19 19 18 17 16 16 15 15 15 14 16 17 17 17 17 16 17 17 12 11 8 9 10 9 10 4 9 11 11 14 11 9 12 14 15 15 13 10 14 15 14 12 10 10 12 14 11 13 15 14 14 13 11 15 14 14 14 14 14 16 14 13 14 13 16 17 15 19 15 16 14 16 16 16 17 19 15 17 14 16 14 14 14 14 16 16
20 20 19 18 18 18 16 16 16 15 15 15 16 18 18 19 17 17 15 13 10 10 9 9 10 8 16 21 17 13 2 4 9 9 9 10 13 13 14 12 12 16 14 13 13 13 13 13 13 14 13 16 16 17 17 18 16 13 14 14 14 15 16 15 12 15 17 20 16 18 19 19 19 13 15 14 16 19 19 16 16 14 13 13 10 8 13 15
20 20 19 18 17 17 17 16 16 15 14 15 19 23 24 21 15 12 11 9 9 8 7 9 12 12 6 3 14 16 13 10 2 7 9 11 12 11 12 13 12 17 15 14 12 16 13 12 14 15 19 19 19 20 19 15 14 16 15 13 14 13 16 17 11 13 19 19 18 19 17 20 19 9 14 15 16 18 13 9 5 6 11 9 12 14 16 15
20 20 18 17 16 17 16 15 14 13 13 12 12 10 9 9 8 7 12 15 16 15 13 8 18 16 19 15 5 4 1 3 10 10 11 12 10 14 15 14 15 17 16 15 15 18 13 16 19 22 19 19 21 20 21 20 15 14 14 14 14 17 9 11 12 12 16 16 18 17 18 20 19 13 14 16 17 17 17 10 9 11 9 8 11 17 18 18
20 19 18 17 16 16 15 14 13 12 11 12 13 11 9 8 10 7 4 9 15 18 20 21 17 17 16 14 12 8 7 8 11 9 13 9 11 13 15 15 16 17 17 17 14 14 16 17 21 23 21 21 22 20 20 21 20 15 13 15 14 16 10 13 13 12 12 13 15 17 17 20 21 13 14 15 16 17 18 21 19 18 15 11 16 19 19 15
19 19 18 17 17 16 15 14 12 12 12 11 11 11 10 13 9 8 9 10 14 18 22 21 20 22 19 20 18 14 10 11 9 12 9 12 14 15 15 17 19 17 17 18 15 15 18 22 20 20 20 18 17 20 21 21 21 13 12 12 13 12 14 15 16 12 11 13 11 18 18 17 21 17 14 17 17 15 16 17 19 19 20 22 20 19 18 15
18 19 18 17 16 16 14 14 13 12 10 10 11 12 12 10 10 8 9 10 15 16 19 21 23 24 22 18 17 16 19 16 12 14 13 11 14 17 15 17 18 17 18 21 18 17 18 18 20 20 18 19 19 20 21 20 18 13 13 10 12 12 15 10 13 12 11 10 10 14 17 14 17 19 16 17 17 15 16 18 16 12 7 7 16 16 15 18
16 17 17 16 16 15 15 14 14 13 11 13 12 13 13 11 8 7 9 8 11 15 19 21 23 21 21 19 14 20 20 15 14 15 15 14 14 15 14 20 19 18 19 24 23 18 16 12 18 19 19 21 21 20 20 16 15 15 15 13 12 14 15 10 10 9 10 11 16 13 15 14 15 18 16 16 18 17 16 15 14 12 8 5 10 13 8 17
16 15 15 15 14 15 14 16 11 8 9 9 11 7 10 10 6 7 7 8 11 16 24 24 15 17 18 16 16 16 17 14 17 12 14 17 16 14 15 13 15 18 20 23 22 19 18 15 17 21 20 23 22 18 20 17 15 14 18 16 11 11 13 14 9 15 11 12 16 11 10 14 15 19 17 14 16 18 17 17 16 14 11 13 14 14 15 14
17 17 15 15 14 14 16 12 7 7 9 9 9 5 3 6 8 8 6 6 12 10 6 14 13 14 14 18 15 13 12 17 17 14 14 17 16 14 10 13 13 18 22 21 19 13 13 16 17 23 22 22 22 18 20 20 16 14 15 19 15 13 13 15 10 11 10 12 14 16 13 9 12 18 18 16 16 19 16 20 18 18 12 10 11 12 12 11
17 17 16 14 14 13 10 6 10 12 11 4 3 6 5 6 9 11 3 7 13 10 16 6 13 8 11 15 16 13 11 14 13 17 17 14 18 14 14 13 13 12 14 11 10 14 14 19 18 20 23 21 20 18 18 22 16 14 14 20 18 17 13 13 12 12 9 10 12 19 13 11 13 19 19 17 17 18 19 18 20 20 20 19 13 10 6 5
16 16 17 16 14 11 9 11 13 11 9 5 5 5 7 8 10 8 3 5 5 8 11 9 2 6 10 15 17 17 3 7 18 20 20 15 17 16 15 16 16 17 16 15 17 11 17 18 20 22 22 17 18 17 16 20 16 11 13 15 19 18 10 11 13 11 11 9 12 15 19 13 13 13 19 20 21 21 20 20 13 16 11 12 12 11 14 20
17 17 16 15 17 16 13 11 12 13 7 5 4 5 5 7 4 3 4 7 1 3 2 10 5 9 7 15 17 19 9 11 7 18 20 15 19 11 14 16 15 17 17 20 13 11 14 18 16 13 14 15 14 17 16 19 17 15 13 13 14 17 13 14 11 11 11 11 13 14 15 13 14 12 15 20 21 22 21 21 18 16 16 15 15 11 20 18
18 18 17 16 15 11 8 8 9 12 9 5 5 4 5 5 3 6 7 7 3 6 3 5 10 12 13 15 14 19 18 9 9 18 21 16 19 16 12 11 13 16 16 17 17 13 14 15 16 12 16 15 16 18 19 18 17 14 13 12 15 15 12 10 9 10 9 12 16 19 22 16 12 15 13 14 16 17 18 16 17 21 19 17 16 21 16 18
19 18 18 17 11 8 8 9 5 1 3 3 2 2 2 1 5 7 9 3 6 3 8 10 8 11 15 15 13 15 17 10 10 19 18 17 18 17 11 12 12 13 13 13 16 18 16 14 17 14 16 14 16 16 17 16 17 19 9 11 11 12 11 10 9 9 10 12 16 17 16 18 16 12 15 14 14 17 17 19 19 18 20 16 13 19 19 16
19 19 20 15 12 10 9 8 6 1 2 3 3 2 2 5 6 7 8 5 7 5 4 5 2 6 15 13 13 16 14 14 12 17 17 16 17 17 15 14 14 15 16 17 16 17 15 14 14 15 15 21 16 14 16 17 18 18 13 13 13 11 9 10 10 11 13 13 11 17 20 15 18 13 11 14 14 15 17 17 17 18 19 20 19 20 18 16
20 19 21 17 14 9 10 9 7 5 1 2 3 2 3 6 6 13 11 2 1 2 3 6 7 11 6 11 10 17 17 14 15 16 17 17 15 16 17 16 17 14 15 16 14 16 13 16 20 18 16 16 16 18 16 15 18 19 16 16 16 13 13 11 13 9 12 13 11 13 21 18 11 15 19 14 19 18 18 18 17 15 17 15 20 20 16 16
21 21 14 10 9 8 7 6 5 2 3 1 4 4 5 8 7 6 9 7 4 1 5 6 13 11 9 9 10 16 15 15 16 15 18 15 16 15 17 20 19 18 11 14 15 18 15 15 17 20 14 18 21 17 14 13 17 17 15 16 15 13 11 12 13 14 15 11 13 14 14 13 15 8 15 19 7 13 13 14 17 16 12 12 20 21 21 19
23 21 15 10 8 6 6 5 5 5 4 3 4 6 8 9 8 3 2 7 5 7 6 12 12 10 8 13 11 17 14 12 15 17 16 15 15 15 17 17 21 18 13 15 13 9 21 11 13 19 11 18 19 18 17 17 17 15 14 14 15 16 10 13 7 10 11 10 10 13 9 9 13 4 10 15 6 5 6 11 10 9 10 10 21 19 19 18
19 9 7 7 5 2 2 2 5 7 4 4 6 8 10 6 4 3 2 2 3 7 11 12 7 9 8 11 13 16 19 9 17 15 13 16 15 15 17 14 17 22 14 13 12 13 16 12 16 20 17 17 20 19 18 17 13 14 15 18 17 14 12 6 7 7 5 7 10 6 11 9 5 7 6 9 14 13 11 8 7 8 13 19 15 17 16 15
11 10 7 3 4 3 3 3 4 6 5 5 6 9 6 6 5 2 3 3 1 4 9 7 4 6 3 9 10 18 17 11 17 14 11 14 14 16 18 17 17 21 20 12 12 12 13 11 18 18 21 18 19 19 15 17 11 12 16 16 14 14 14 10 8 5 7 9 7 12 15 14 11 8 14 13 7 10 12 11 11 12 13 14 14 13 14 15
12 9 8 5 2 1 1 3 5 6 5 6 9 11 9 10 3 4 2 2 2 4 8 5 3 4 6 3 11 17 14 12 15 15 12 15 9 17 17 15 20 19 20 17 10 14 14 10 14 19 17 16 19 17 18 17 19 14 14 9 15 13 16 13 6 10 11 10 8 13 15 13 14 10 12 17 17 15 13 13 14 14 13 15 16 16 13 13
11 10 4 4 2 2 0 5 7 5 6 7 9 10 4 6 5 5 7 2 1 5 6 3 5 4 10 10 9 14 15 11 17 14 12 13 10 16 18 13 18 20 21 20 13 13 14 9 11 16 19 17 17 16 16 17 18 18 13 14 13 9 12 12 10 7 9 10 10 12 16 10 13 14 13 14 16 16 16 15 15 15 15 13 14 16 16 16
7 6 0 3 2 2 3 5 5 5 6 10 7 8 4 6 2 3 3 4 3 3 1 7 5 10 10 8 11 8 12 11 15 12 11 12 8 17 17 15 14 20 21 19 12 14 11 9 9 14 19 15 15 15 16 17 17 16 15 16 13 11 10 10 9 12 10 9 10 7 10 11 10 11 14 13 14 15 16 16 14 14 14 13 13 17 16 16
6 4 2 4 3 1 4 4 6 7 8 7 13 10 7 5 2 1 1 3 4 4 5 7 8 8 9 10 2 8 8 10 13 11 8 12 10 10 15 16 15 18 19 20 16 13 9 12 9 13 16 17 15 15 18 20 19 15 12 16 17 15 13 14 13 13 13 11 8 8 9 6 8 10 10 10 11 12 14 15 15 14 15 13 11 17 16 16
7 5 2 2 1 4 6 5 7 7 6 9 3 4 4 5 6 3 4 2 5 5 4 7 9 10 9 8 9 9 5 9 12 10 9 11 13 8 14 18 14 18 16 14 13 14 9 8 10 12 14 14 16 18 17 17 17 18 13 13 14 13 13 13 13 13 13 11 9 11 7 5 6 4 10 9 10 12 13 14 11 10 11 11 11 17 16 17
5 6 4 2 2 5 5 7 7 9 9 5 6 8 5 4 5 4 4 3 7 4 5 7 7 8 7 7 7 8 7 7 12 9 8 12 13 8 16 21 18 18 17 13 15 15 6 7 11 12 12 13 15 17 18 18 18 19 20 17 16 18 17 13 11 10 9 11 10 7 7 3 4 6 7 6 5 9 7 10 10 10 9 12 17 15 16 16
8 7 1 3 2 6 6 4 5 3 6 8 6 6 7 5 4 5 5 5 4 3 4 5 7 7 9 9 8 7 7 4 11 9 8 11 10 12 22 17 20 17 17 12 11 15 7 9 11 11 11 13 14 14 15 16 17 17 16 17 19 16 16 15 12 6 9 14 13 9 10 5 3 0 3 6 8 8 9 8 10 11 12 14 14 14 14 18
8 4 4 1 3 5 4 4 6 6 7 8 9 9 7 4 4 5 7 8 5 7 6 6 7 5 8 7 9 10 11 10 5 3 6 10 8 7 21 20 21 16 14 17 11 14 8 11 12 12 16 17 17 18 19 19 19 14 16 19 21 19 19 14 11 10 8 10 16 10 6 6 7 3 7 8 10 12 8 11 10 11 12 13 13 13 15 16
5 6 5 2 2 4 5 5 4 5 7 8 8 5 5 5 3 4 5 8 8 9 10 11 12 11 11 10 9 8 10 9 6 3 7 9 8 8 14 20 18 16 19 9 10 16 8 11 13 12 12 11 12 10 10 13 12 15 17 19 19 20 20 17 11 10 9 7 10 13 10 9 8 7 9 9 9 12 12 11 11 11 11 12 14 14 13 14
5 4 5 6 8 3 4 4 6 4 4 6 5 3 5 4 6 4 6 4 5 8 7 11 9 7 7 9 7 7 9 7 3 7 8 9 8 9 18 18 18 18 7 3 10 11 9 11 17 14 14 14 13 10 10 13 15 17 17 18 19 21 19 19 13 12 11 8 9 10 16 13 10 11 10 11 11 12 10 10 11 11 12 12 14 13 13 14
4 2 2 1 4 5 8 1 5 8 9 5 5 3 5 7 6 5 2 8 7 6 5 4 10 13 11 10 2 5 10 9 8 5 6 7 9 13 15 16 17 16 10 12 13 10 10 8 14 13 12 12 12 15 14 15 17 17 18 16 18 19 21 19 17 15 14 9 9 11 14 16 7 8 10 12 14 10 9 10 10 10 10 11 14 15 15 15
1 5 4 2 4 5 8 11 14 11 11 6 4 5 6 6 7 4 2 4 4 4 9 5 6 7 10 8 7 5 4 6 4 5 6 9 12 14 13 15 14 18 15 13 14 10 9 7 13 14 13 8 6 8 13 18 17 18 18 17 15 16 17 18 17 17 16 12 13 9 8 11 9 11 13 12 12 12 10 9 9 12 14 13 14 14 14 14
5 5 4 5 6 11 11 9 9 9 8 3 2 3 5 4 5 8 5 2 4 4 4 9 10 10 9 10 7 6 3 3 4 8 8 8 12 10 12 11 12 16 14 14 12 13 10 6 12 13 10 8 8 8 8 9 13 16 17 17 17 16 16 19 18 16 16 14 14 7 7 9 7 16 13 10 11 10 11 11 11 13 14 16 15 15 15 13
5 3 5 7 10 6 8 7 7 6 6 3 3 5 6 7 8 8 8 5 7 5 3 7 9 13 12 7 3 6 1 2 5 5 5 3 3 7 10 11 15 15 16 14 12 12 11 4 11 10 7 8 8 5 7 9 11 15 16 18 19 19 17 16 15 16 16 15 13 10 8 6 8 14 12 9 10 12 12 11 10 12 15 14 16 16 15 16
7 5 4 4 6 8 8 9 7 6 3 6 6 10 8 10 12 9 6 5 9 5 5 7 8 9 8 1 7 3 6 5 3 1 2 6 3 7 5 8 12 13 12 12 13 12 9 5 7 9 10 7 8 8 10 12 12 13 14 17 18 17 14 14 14 14 16 13 11 9 9 7 10 12 12 9 11 11 11 11 10 13 15 15 14 15 15 14
Wind_Direction
336 334 323 312 304 310 306 300 295 296 295 300 305 306 313 322 321 325 328 328 328 330 329 327 329 327 324 327 322 326 319 305 301 289 271 262 281 25 23 344 322 297 288 278 255 238 234 222 214 216 218 220 213 230 226 208 230 205 223 234 236 234 237 233 245 242 249 248 133 193 162 209 218 184 213 180 217 233 223 204 213 198 78 55 77 125 141 149
341 336 333 326 316 304 305 306 304 300 300 301 298 303 306 312 312 317 323 327 326 327 330 329 327 326 324 318 323 319 314 300 291 284 267 240 89 63 350 319 298 286 278 254 238 220 228 212 213 204 217 221 206 224 217 205 211 217 220 227 237 229 238 247 265 249 198 243 141 120 145 229 247 287 171 239 202 204 216 204 197 165 114 112 113 132 144 149
346 341 337 332 325 322 312 303 302 302 296 296 302 303 300 299 304 310 318 326 325 323 328 330 328 328 326 322 319 316 301 295 286 271 358 65 74 56 341 297 284 262 235 241 232 234 228 225 207 208 214 230 205 218 209 211 196 218 233 226 231 242 243 251 275 307 263 343 273 201 177 201 236 232 348 245 239 191 211 197 186 172 141 125 145 144 146 153
344 343 339 337 333 327 319 314 305 302 299 295 291 295 298 295 297 303 314 317 315 320 325 325 330 328 326 325 324 309 297 291 277 158 81 73 72 108 276 286 284 254 237 245 255 247 240 249 231 209 218 226 214 220 208 206 205 199 229 235 234 220 244 189 238 252 258 264 259 242 240 236 224 232 238 241 264 214 208 203 189 173 152 148 158 153 156 158
342 340 338 336 335 332 327 322 314 307 301 297 294 289 293 297 293 297 304 314 309 314 324 324 326 326 324 321 315 300 298 288 105 91 104 63 62 288 288 286 278 263 233 237 240 251 249 239 239 225 224 215 231 202 228 209 216 229 225 237 249 250 253 324 207 227 244 246 263 259 241 225 222 259 238 239 242 222 211 196 193 174 159 159 160 160 168 161
338 337 335 334 334 333 331 327 323 318 309 302 294 291 288 291 295 294 298 300 305 310 320 323 323 326 323 325 301 294 286 260 53 119 122 104 303 304 297 301 279 263 237 225 227 227 232 228 226 220 214 232 217 225 207 224 200 234 229 233 238 253 254 237 233 205 237 235 226 230 230 245 263 252 236 241 234 255 208 204 190 173 168 164 151 161 169 164
334 334 332 330 328 330 328 327 326 323 318 307 301 297 292 289 289 289 289 293 301 308 315 320 319 324 329 303 286 271 257 280 268 118 116 165 341 286 313 293 273 229 224 218 217 221 217 223 217 218 221 222 230 229 220 212 220 230 243 224 230 245 242 238 222 207 209 239 244 250 266 260 236 240 219 231 232 250 294 299 173 160 149 137 150 168 170 171
332 330 328 327 326 325 327 324 325 325 320 316 309 302 296 289 280 283 286 289 294 305 307 312 318 321 329 313 309 272 241 249 257 131 105 161 254 275 293 288 279 258 215 216 211 216 212 218 214 216 225 221 215 229 220 223 222 225 233 248 234 225 234 229 234 226 228 239 245 245 244 240 238 245 236 233 234 230 230 214 159 135 142 148 154 173 172 172
328 326 326 324 324 322 321 322 321 321 321 317 312 305 298 295 288 279 283 282 287 289 301 295 316 321 306 283 290 284 258 256 276 82 143 193 231 297 295 283 284 283 234 215 219 218 217 215 222 217 221 224 228 231 222 228 223 225 235 235 244 235 238 234 233 242 240 241 234 233 235 237 238 243 245 248 238 232 202 196 172 154 158 163 171 170 174 172
321 322 321 320 321 321 319 318 317 317 317 318 317 311 304 297 292 285 281 284 285 288 292 297 298 327 293 288 280 267 285 4 261 236 245 199 281 296 275 269 284 272 248 222 219 219 218 217 221 216 244 245 232 233 225 222 245 210 226 235 246 237 229 231 240 232 228 237 234 238 236 229 224 229 247 233 229 217 187 196 170 178 162 166 174 174 178 171
317 314 314 315 315 317 317 316 315 313 316 316 318 317 310 304 297 290 283 278 278 278 287 297 304 287 295 292 268 255 303 283 101 283 187 242 289 288 272 270 276 270 260 241 229 223 223 229 218 230 229 240 234 238 229 227 230 249 301 238 236 245 239 235 229 235 227 225 227 238 243 237 233 226 245 223 193 188 193 196 185 169 182 162 169 179 177 176
312 311 310 309 310 310 313 313 314 314 312 316 316 315 312 304 299 288 279 275 275 276 278 282 294 288 280 270 251 241 287 305 307 300 288 288 286 281 275 268 261 257 259 249 233 228 227 225 229 223 228 208 247 252 233 233 225 239 221 250 234 233 237 228 234 222 222 235 216 219 238 231 224 231 226 216 174 184 198 187 185 168 175 168 173 179 177 178
316 311 306 307 305 307 305 311 311 313 312 313 315 311 308 306 298 290 281 274 266 272 274 274 277 279 281 269 253 262 261 273 281 281 279 273 273 269 261 254 247 248 248 253 250 232 238 235 227 231 234 236 225 229 340 217 228 234 223 239 245 227 233 227 224 229 218 222 223 203 228 219 218 221 227 189 185 193 194 184 183 174 169 163 168 180 181 177
322 318 312 306 304 302 303 303 308 309 310 311 311 310 306 301 297 289 279 275 278 271 272 272 270 278 271 264 273 261 264 260 262 266 264 266 264 262 254 239 239 235 234 245 251 266 235 234 239 237 236 234 233 212 255 226 210 217 224 225 241 238 233 212 212 206 223 207 212 213 237 227 210 209 217 187 187 196 190 187 182 177 174 162 172 185 181 177
322 320 317 312 306 300 300 302 303 307 307 309 308 308 303 294 286 282 278 273 266 267 270 276 264 269 262 270 265 257 244 249 258 257 256 256 252 256 243 230 221 222 225 228 241 243 251 227 233 234 229 225 250 229 211 224 199 216 218 219 221 237 237 218 192 201 211 195 205 208 235 238 211 199 198 178 189 198 194 187 178 172 176 166 179 186 186 178
323 322 320 316 310 304 296 294 297 301 303 308 304 302 298 288 279 271 268 269 277 278 265 255 249 237 270 283 266 16 227 229 237 241 241 240 240 242 233 218 213 212 214 219 231 232 230 222 220 220 225 210 223 231 219 218 212 208 221 222 219 219 232 230 177 195 205 202 193 208 224 225 241 195 173 176 191 194 197 186 171 170 180 175 179 193 189 178
325 322 321 319 316 308 302 297 296 299 305 305 302 288 284 282 273 263 259 258 256 243 234 247 248 211 245 254 241 259 240 227 230 218 218 213 220 224 235 216 200 202 203 214 213 218 211 214 204 228 228 221 206 218 215 214 210 208 208 227 227 218 212 232 151 193 193 215 192 204 228 233 243 159 164 181 197 193 183 193 193 173 183 188 182 199 189 180
326 323 319 319 318 315 306 299 295 297 303 304 296 292 284 276 266 259 251 244 248 246 238 247 262 269 250 236 256 238 267 14 177 225 216 193 211 217 223 217 193 197 189 203 201 213 195 206 201 216 210 218 203 208 214 210 205 205 199 214 222 225 217 225 188 181 203 204 213 195 219 232 241 169 176 178 197 194 196 185 186 172 178 184 166 196 206 185
329 325 320 318 317 315 310 302 297 297 301 305 288 269 258 257 259 250 255 229 214 208 220 208 203 193 32 110 220 245 255 254 274 232 211 201 188 216 216 229 202 187 190 199 184 203 184 209 202 214 213 204 207 204 214 224 209 219 206 213 222 220 208 220 194 178 200 195 213 200 206 223 237 185 186 187 199 202 158 178 179 170 174 183 178 193 205 191
333 328 324 319 318 315 312 306 301 296 303 296 295 291 285 254 220 238 224 227 222 225 232 239 190 229 285 280 230 138 298 208 232 211 229 196 196 199 210 211 196 197 195 200 176 198 179 202 202 209 210 205 210 210 218 226 239 224 223 216 214 227 218 212 221 175 187 202 209 207 208 218 227 199 194 192 194 202 162 180 203 196 183 184 196 198 200 194
334 333 327 323 318 317 311 307 300 294 293 290 293 289 280 292 288 273 5 257 243 237 240 253 237 236 242 261 262 256 255 206 209 218 212 166 208 188 198 201 198 197 203 199 192 183 197 210 214 209 208 209 205 211 217 223 232 236 226 215 218 221 214 203 220 156 195 217 199 217 207 215 224 199 202 196 198 205 184 173 204 194 178 180 211 202 203 195
337 335 331 325 321 316 314 305 301 294 287 280 281 275 279 274 300 322 290 271 231 228 237 247 254 255 253 257 263 268 275 271 227 221 196 178 195 203 179 201 196 199 189 197 193 184 204 214 212 207 208 213 207 210 216 219 225 224 241 218 220 200 226 181 211 154 199 212 216 204 221 212 219 215 201 204 202 203 203 197 187 182 184 188 200 199 191 191
336 335 333 330 325 319 315 308 294 299 286 275 268 272 269 289 315 290 275 276 274 266 260 247 244 241 241 243 246 240 246 237 232 207 200 191 193 214 179 199 200 198 189 197 197 191 204 217 210 206 204 213 211 210 213 216 227 218 227 225 208 197 208 165 212 165 198 208 224 203 218 219 215 222 211 206 204 208 204 202 198 211 191 201 197 184 193 195
334 332 333 333 329 323 316 311 302 278 258 257 269 273 298 302 285 297 289 267 279 257 245 239 237 242 238 231 224 230 228 228 229 221 199 197 211 203 214 200 202 203 198 198 207 202 210 200 201 208 202 209 214 207 209 208 214 215 221 212 205 209 202 224 170 173 213 210 240 231 208 220 214 213 209 204 204 209 209 203 184 187 174 119 343 334 251 209
329 330 328 331 330 324 319 315 283 276 281 285 272 321 355 305 274 270 295 281 251 251 238 243 239 231 232 227 225 217 217 233 224 224 201 197 203 197 218 196 213 206 206 197 207 212 209 203 188 205 203 207 212 205 205 203 214 204 217 231 229 221 217 212 193 183 196 211 210 232 220 214 208 216 208 198 203 210 202 201 197 199 174 167 164 198 250 253
327 326 327 321 325 322 313 290 286 308 301 292 348 12 6 338 351 311 270 261 276 271 232 225 175 222 200 211 203 215 206 228 214 216 222 192 208 213 195 212 209 205 206 197 206 215 210 199 196 199 204 205 206 210 198 203 214 207 203 226 242 244 230 209 213 187 203 210 185 213 227 205 209 217 209 200 203 207 209 204 181 200 189 192 181 188 213 233
329 322 323 321 313 322 302 302 326 309 292 321 358 345 327 347 343 327 290 248 268 224 214 121 170 100 185 187 183 177 200 227 187 206 218 187 202 208 220 203 195 233 204 200 198 210 209 199 198 199 203 202 202 210 197 202 212 211 200 201 223 238 234 215 199 204 224 211 193 199 225 243 205 214 204 196 209 212 213 213 197 189 187 193 191 183 211 79
320 321 319 316 308 293 291 298 298 295 312 347 326 353 341 357 350 309 231 280 269 115 156 135 305 138 231 159 177 190 266 100 164 193 208 177 207 195 228 208 201 206 199 199 209 186 194 202 202 201 200 199 203 201 190 200 211 213 203 199 205 222 228 225 212 211 234 211 214 189 207 235 250 206 193 199 213 215 212 213 155 187 183 183 195 188 103 111
318 315 315 311 304 287 280 276 289 287 302 316 359 356 9 1 8 311 237 243 73 10 61 142 126 171 176 154 186 208 212 177 195 164 187 190 206 209 207 223 210 207 210 208 215 181 189 216 190 191 181 195 199 195 201 192 213 217 221 184 203 210 218 222 220 223 214 234 226 191 199 225 228 237 206 199 214 211 210 209 178 184 187 197 202 138 114 120
314 314 310 309 300 276 261 248 249 262 284 1 350 4 17 31 298 208 193 247 40 169 289 99 198 173 169 173 195 205 222 178 273 146 176 189 188 221 225 224 221 206 212 205 222 208 183 212 169 194 196 201 200 207 210 202 211 208 231 188 196 200 207 212 228 224 224 227 234 217 192 217 229 221 219 200 208 212 208 208 205 188 192 202 175 119 132 134
312 308 307 304 287 294 295 285 284 5 7 322 18 317 16 48 251 223 214 196 37 30 314 178 178 163 175 183 182 195 218 175 174 155 170 185 181 205 203 205 230 210 212 200 209 219 184 193 190 191 210 214 211 202 203 201 195 214 183 198 180 191 201 209 212 231 230 231 216 224 228 201 235 214 224 213 195 212 213 213 208 199 193 174 171 124 134 133
310 304 300 294 285 287 275 277 319 316 280 8 305 294 251 258 222 233 207 118 264 11 352 358 261 183 182 191 184 183 192 188 167 183 175 181 179 188 195 196 187 187 198 196 193 205 189 201 195 196 210 216 193 204 191 188 194 207 178 194 192 183 191 202 200 207 221 227 206 205 218 222 221 238 222 196 203 205 218 219 212 202 209 181 160 146 144 145
307 299 293 279 273 257 254 269 273 289 8 242 266 218 228 264 245 212 227 303 307 4 15 332 329 314 248 210 202 175 197 194 168 189 182 181 187 190 197 208 189 206 189 183 187 192 186 193 191 206 203 213 202 207 174 186 195 199 186 189 196 190 187 202 201 209 225 224 226 209 210 237 223 218 244 225 193 205 207 217 218 212 206 199 142 151 149 146
306 302 296 288 281 272 275 258 249 217 211 254 237 201 222 245 255 245 229 51 355 336 295 326 316 287 239 216 194 176 185 199 175 182 187 179 190 184 195 210 197 203 211 174 200 189 183 188 196 195 197 189 216 210 180 197 192 200 189 199 205 202 186 193 202 203 211 213 204 222 206 221 219 203 211 246 237 175 200 212 212 212 196 202 136 149 149 150
305 296 279 272 248 255 258 246 217 182 190 222 237 239 246 242 257 254 53 11 8 331 333 314 290 281 233 213 205 178 196 173 178 181 190 184 190 191 189 195 198 204 195 187 198 191 204 199 185 201 197 186 204 193 198 194 198 193 194 211 214 213 184 212 202 221 208 215 206 201 232 205 219 186 207 215 191 211 202 203 133 163 179 134 128 140 151 154
298 286 279 260 249 225 249 232 197 188 197 237 259 240 234 264 303 29 48 326 343 341 329 311 282 263 226 198 199 183 197 199 175 185 192 194 191 194 187 193 195 201 193 197 172 199 191 202 179 189 195 194 207 193 202 196 196 174 198 210 212 210 201 200 213 245 317 220 222 179 211 235 224 235 263 243 202 177 186 184 181 137 165 125 136 147 152 161
312 313 284 300 237 218 261 220 186 193 199 240 249 258 277 262 70 129 120 6 42 314 330 339 340 352 202 187 185 178 176 187 173 188 181 191 190 201 185 194 202 197 219 202 182 211 180 192 173 177 189 187 200 203 205 193 211 173 210 206 206 217 225 205 214 174 230 212 215 191 203 209 200 211 191 216 230 176 185 198 195 199 183 140 139 152 151 154
307 300 293 276 357 354 221 209 214 203 222 243 252 264 281 290 50 43 111 16 268 350 316 318 312 277 348 308 183 177 164 205 168 190 185 186 190 193 186 193 192 202 211 209 208 177 193 184 168 178 194 183 192 201 219 198 213 207 204 190 209 183 214 205 204 201 199 212 215 194 203 215 209 217 172 199 206 210 201 193 192 189 195 189 172 150 153 155
299 286 267 65 334 300 166 171 209 207 218 243 250 264 249 282 13 331 63 320 95 317 300 10 342 299 317 304 207 172 172 196 165 193 184 182 204 178 197 191 177 199 205 204 203 176 200 191 165 181 198 172 188 197 204 194 203 239 202 209 215 222 213 219 211 210 202 212 220 209 204 218 208 220 196 194 198 204 211 202 195 188 189 191 189 167 161 171
314 332 136 246 316 292 128 203 198 208 227 242 250 251 317 308 30 88 45 354 329 332 308 303 297 295 292 291 288 182 182 183 173 188 198 162 213 159 198 180 181 193 199 203 198 182 196 189 169 174 195 172 199 196 202 191 187 203 214 200 196 226 203 231 201 221 203 214 207 218 211 210 205 204 209 188 189 202 210 204 196 184 183 182 186 152 164 163
309 284 250 207 293 246 177 219 216 214 226 252 255 290 296 314 332 222 93 338 306 182 282 289 294 282 300 315 299 226 175 173 183 186 180 164 188 164 201 184 179 184 196 202 201 178 199 185 176 168 194 195 202 189 211 197 189 200 210 209 193 199 196 204 208 206 226 207 206 207 227 216 196 195 221 183 188 198 205 203 201 184 180 176 177 154 159 159
299 293 64 106 82 251 206 226 229 243 259 256 321 343 315 21 275 313 304 217 249 291 228 276 277 273 282 282 285 282 185 170 183 186 170 174 160 194 183 182 186 179 194 181 185 178 218 166 182 184 194 190 201 173 213 199 197 205 208 218 211 200 211 202 218 199 217 228 218 209 218 204 26 283 187 176 177 196 197 195 173 171 164 172 162 146 154 151
296 318 115 269 44 200 193 240 259 244 242 6 338 283 280 242 312 320 311 287 290 279 277 259 271 289 260 249 285 279 259 179 183 181 167 182 173 197 166 180 176 184 204 177 183 179 202 186 172 183 178 177 203 176 197 213 202 208 205 210 213 211 202 220 213 212 212 218 233 210 210 121 86 61 67 103 135 80 72 107 133 151 152 143 123 142 149 146
315 314 56 127 192 187 222 299 345 344 353 319 326 316 316 311 284 280 255 279 264 261 268 285 284 253 271 291 280 282 266 214 174 182 181 170 184 195 161 186 183 184 204 170 199 155 186 194 182 170 173 172 185 180 192 210 218 210 202 204 221 218 206 222 232 234 236 218 229 218 214 164 148 104 89 180 171 135 144 134 146 132 117 125 136 141 156 158
299 278 272 141 156 188 248 343 325 332 330 327 321 316 301 278 278 291 303 293 280 267 285 272 256 284 279 281 284 286 277 276 190 161 180 153 132 157 158 185 192 172 197 177 210 146 216 185 188 181 181 176 182 188 188 190 203 204 205 205 218 221 206 202 217 206 219 216 226 218 217 96 109 188 170 184 176 164 133 106 99 117 131 139 146 159 157 160
329 334 356 36 241 233 254 266 264 289 304 314 308 316 290 260 257 293 280 269 257 263 255 271 284 273 268 263 262 259 252 233 267 142 194 124 136 191 166 182 190 175 198 142 156 160 216 196 194 194 193 192 198 199 170 183 190 213 204 212 205 219 217 208 211 225 218 196 220 215 206 132 141 196 165 165 188 135 141 143 142 145 144 148 154 151 149 159
303 342 345 336 332 230 284 273 267 260 284 338 311 0 313 308 308 274 212 253 222 236 251 245 255 260 262 239 245 227 219 204 223 219 182 137 145 143 166 174 188 183 194 167 202 165 218 202 204 204 205 198 189 193 179 198 198 204 209 206 210 203 223 215 208 218 222 219 222 210 221 216 179 173 161 184 160 144 153 149 153 157 159 161 151 144 146 154
347 39 268 358 300 321 324 338 332 300 285 267 282 298 290 300 300 298 241 239 265 227 246 236 229 242 258 264 278 239 202 180 192 186 163 130 131 144 159 170 191 144 156 190 194 202 200 205 200 219 226 225 185 195 201 197 207 200 213 211 208 205 210 221 214 222 225 220 226 211 210 226 189 154 163 184 146 153 168 162 160 153 164 163 148 146 155 163
179 313 295 322 287 303 299 296 299 293 291 272 270 259 278 293 309 315 283 307 245 227 217 269 265 237 267 257 243 254 234 165 192 207 153 165 140 154 156 163 190 152 182 185 194 199 209 215 194 206 212 207 255 247 215 204 200 203 204 210 210 212 207 212 214 216 221 223 232 246 223 222 207 166 173 140 149 157 153 162 164 159 166 165 149 154 155 168
359 336 329 316 280 282 286 293 288 283 288 293 267 281 305 306 301 325 317 299 297 289 226 253 274 296 261 218 197 238 90 17 139 165 160 160 149 170 151 173 164 163 181 190 189 188 226 175 185 196 198 213 239 224 253 236 205 214 203 206 207 210 211 212 214 209 215 219 226 220 276 224 183 90 96 100 121 137 145 159 168 170 169 165 163 153 156 169
306 241 281 301 311 311 311 313 308 320 306 314 289 338 314 322 319 327 302 266 253 265 238 264 301 309 329 259 88 248 22 37 59 88 296 155 123 155 166 183 172 162 184 180 195 171 224 219 186 192 206 198 207 234 234 246 234 222 209 204 205 205 206 202 211 206 212 212 217 204 209 217 139 101 108 124 131 149 154 158 160 172 166 170 167 151 159 164
329 319 279 271 289 312 306 317 305 299 332 355 331 324 324 314 315 329 323 209 216 247 273 302 293 309 307 30 200 273 19 340 6 144 145 79 136 261 191 186 176 172 178 183 183 186 189 215 191 186 210 189 196 185 204 219 227 227 218 209 205 203 212 203 203 204 211 213 213 215 213 231 118 135 135 152 148 149 159 158 167 166 168 176 158 155 158 155